Location: Street
(51.1247°N, 2.7429°W)
Time: 01:26:56
(UTC+01:00)

CAS-4B - Visible Passes

Search period start: 31 March 2023 00:00
Search period end: 10 April 2023 00:00
Orbit: 510 x 526 km, 43.0° (Epoch: 30 March)

Date Brightness Start Highest point End Pass type
(mag) Time Alt. Az. Time Alt. Az. Time Alt. Az.
31 Mar ? 04:54:24 13° S 04:55:20 14° SSE 04:57:26 10° SE visible
01 Apr ? 04:38:45 15° SSE 04:38:56 15° SSE 04:41:16 10° ESE visible
02 Apr ? 04:23:03 16° SSE 04:23:03 16° SSE 04:25:02 10° ESE visible
02 Apr ? 05:58:09 10° SW 06:01:29 25° S 06:04:50 10° ESE visible
03 Apr ? 04:07:19 15° SE 04:07:19 15° SE 04:08:45 10° ESE visible
03 Apr ? 05:42:16 13° SW 05:45:04 26° S 05:48:25 10° ESE visible
04 Apr ? 03:51:33 14° SE 03:51:33 14° SE 03:52:25 10° ESE visible
04 Apr ? 05:26:30 17° SW 05:28:37 26° S 05:31:58 10° ESE visible
05 Apr ? 03:35:46 11° ESE 03:35:46 11° ESE 03:36:02 10° ESE visible
05 Apr ? 05:10:43 21° SW 05:12:08 26° S 05:15:29 10° SE visible
06 Apr ? 04:54:57 24° SSW 04:55:37 25° S 04:58:57 10° SE visible
07 Apr ? 04:39:12 25° S 04:39:12 25° S 04:42:23 10° SE visible
08 Apr ? 04:23:30 22° SSE 04:23:30 22° SSE 04:25:47 10° SE visible
09 Apr ? 04:07:54 16° SSE 04:07:54 16° SSE 04:09:09 10° SE visible
09 Apr ? 05:43:01 10° SW 05:44:47 13° SSW 05:46:34 10° S visible
